Location: Newark
(44.3681°N, 100.3364°W)
Time: 14:27:34
(UTC+00:00)

Explorer 7 - Pass Details

Date: 20 February 2020
Orbit: 485 x 679 km, 50.3° (Epoch: 29 March)

Event Time Altitude Azimuth Distance (km) Brightness Sun altitude
Rises 19:21:59 0° 232° (SW) 2,950 11.1 34.4°
Reaches altitude 10° 19:24:22 10° 230° (SW) 2,017 10.5 34.3°
Maximum altitude 19:28:59 68° 148° (SSE) 659 8.1 34.2°
Drops below altitude 10° 19:33:19 10° 66° (ENE) 1,904 9.4 34.1°
Sets 19:35:31 0° 63° (ENE) 2,772 10.1 34.0°
